Talkeetna, AK

6:23 PM AKST on December 17, 2017 (GMT -0900)
Talkeetna

Weather History for PATK - April, 2014

Change the Weather History Date:

Friday, April 4, 2014

  Actual Average Record
Temperature  
Mean Temperature 31 °F -  
Max Temperature 41 °F 40 °F 53 °F (1962)
Min Temperature 21 °F 19 °F -12 °F (1964)
Degree Days  
Heating Degree Days 34    
Moisture  
Dew Point 16 °F    
Average Humidity 48    
Maximum Humidity 72    
Minimum Humidity 22    
Precipitation  
Precipitation 0.00 in - - ()
Sea Level Pressure  
Sea Level Pressure 29.54 in    
Wind  
Wind Speed 1 mph (NW)    
Max Wind Speed 5 mph    
Max Gust Speed -    
Visibility 10 miles    
Events      
Averages and records for this station are not official NWS values.
T = Trace of Precipitation, MM = Missing Value Source: NWS Daily Summary

Daily Weather History Graph

Daily Weather History Graph

Search for Another Location

Airport or City:

Trip Planner

Search our weather history database for the weather conditions in past years. The results will help you decide how hot, cold, wet, or windy it might be!

Date:

Astronomy

Apr. 04, 2014 Rise Set
Actual Time 7:11 AM AKDT 8:57 PM AKDT
Civil Twilight 6:23 AM AKDT 9:44 PM AKDT
Nautical Twilight 5:23 AM AKDT 10:46 PM AKDT
Astronomical Twilight 4:05 AM AKDT 12:06 AM AKDT
Moon 9:26 AM AKDT (4/4) 2:32 AM AKDT (4/4)
Length of Visible Light 15h 20m
Length of Day
13h 45m
Waxing Crescent, 27% of the Moon is Illuminated
Apr 4
Waxing Crescent
Apr 7
First Quarter
Apr 14
Full
Apr 21
Last Quarter
Apr 28
New

Hourly Weather History & Observations

Time (AKDT) Temp. Windchill Dew Point Humidity Pressure Visibility Wind Dir Wind Speed Gust Speed Precip Events Conditions
12:53 AM 30.0 °F - 15.1 °F 54% 29.60 in 10.0 mi Calm Calm - N/A   Overcast
1:53 AM 28.0 °F - 15.1 °F 58% 29.60 in 10.0 mi Calm Calm - N/A   Overcast
2:53 AM 26.1 °F - 16.0 °F 66% 29.58 in 10.0 mi Calm Calm - N/A   Overcast
3:53 AM 24.1 °F - 16.0 °F 71% 29.58 in 10.0 mi Calm Calm - N/A   Overcast
4:53 AM 23.0 °F - 15.1 °F 72% 29.58 in 10.0 mi Calm Calm - N/A   Mostly Cloudy
5:53 AM 26.1 °F 20.5 °F 12.9 °F 58% 29.57 in 10.0 mi NNW 4.6 mph - N/A   Mostly Cloudy
6:53 AM 24.1 °F - 12.9 °F 62% 29.57 in 10.0 mi Calm Calm - N/A   Overcast
7:53 AM 24.1 °F - 12.9 °F 62% 29.57 in 10.0 mi Calm Calm - N/A   Mostly Cloudy
8:53 AM 27.0 °F 23.0 °F 12.0 °F 53% 29.56 in 10.0 mi North 3.5 mph - N/A   Mostly Cloudy
9:53 AM 28.9 °F 23.9 °F 10.9 °F 47% 29.56 in 10.0 mi NNW 4.6 mph - N/A   Mostly Cloudy
10:53 AM 32.0 °F 28.7 °F 12.0 °F 44% 29.55 in 10.0 mi North 3.5 mph - N/A   Mostly Cloudy
11:53 AM 36.0 °F 33.3 °F 12.0 °F 37% 29.55 in 10.0 mi NE 3.5 mph - N/A   Mostly Cloudy
12:53 PM 37.0 °F 33.3 °F 14.0 °F 39% 29.54 in 10.0 mi West 4.6 mph - N/A   Mostly Cloudy
1:53 PM 39.0 °F 35.7 °F 15.1 °F 38% 29.53 in 10.0 mi West 4.6 mph - N/A   Mostly Cloudy
2:53 PM 39.9 °F 36.7 °F 15.1 °F 36% 29.52 in 10.0 mi West 4.6 mph - N/A   Mostly Cloudy
3:53 PM 41.0 °F 38.0 °F 15.1 °F 35% 29.51 in 10.0 mi WNW 4.6 mph - N/A   Overcast
4:53 PM 41.0 °F 39.0 °F 17.1 °F 38% 29.50 in 10.0 mi Variable 3.5 mph - N/A   Overcast
5:53 PM 41.0 °F 39.0 °F 16.0 °F 36% 29.50 in 10.0 mi West 3.5 mph - N/A   Overcast
6:53 PM 39.9 °F - 17.1 °F 40% 29.49 in 10.0 mi Calm Calm - N/A   Overcast
7:53 PM 39.9 °F - 17.1 °F 40% 29.49 in 10.0 mi Calm Calm - N/A   Overcast
8:53 PM 37.9 °F 35.5 °F 19.9 °F 48% 29.49 in 10.0 mi Variable 3.5 mph - N/A   Overcast
9:53 PM 37.0 °F - 19.9 °F 50% 29.49 in 10.0 mi Calm Calm - N/A   Overcast
10:53 PM 36.0 °F - 21.0 °F 55% 29.49 in 10.0 mi Calm Calm - N/A   Overcast
11:53 PM 35.1 °F - 21.9 °F 59% 29.49 in 10.0 mi Calm Calm - N/A   Overcast